Weather History for KCOF - January, 2013

Change the Weather History Date:

Saturday, January 12, 2013

  Actual Average Record
Temperature  
Mean Temperature 70 °F -  
Max Temperature 76 °F 68 °F 80 °F (2005)
Min Temperature 64 °F 54 °F 41 °F (2011)
Cooling Degree Days 5    
Growing Degree Days 20 (Base 50)    
Moisture  
Dew Point 66 °F    
Average Humidity 92    
Maximum Humidity 100    
Minimum Humidity 71    
Precipitation  
Precipitation 0.00 in - - ()
Sea Level Pressure  
Sea Level Pressure 30.18 in    
Wind  
Wind Speed 2 mph (ENE)    
Max Wind Speed 9 mph    
Max Gust Speed -    
Visibility 4 miles    
Events Fog    
Averages and records for this station are not official NWS values.
T = Trace of Precipitation, MM = Missing Value Source: NWS Daily Summary

Daily Weather History Graph

Daily Weather History Graph

Search for Another Location

Airport or City:

Trip Planner

Search our weather history database for the weather conditions in past years. The results will help you decide how hot, cold, wet, or windy it might be!

Date:

Astronomy

Jan. 12, 2013 Rise Set
Actual Time 7:15 AM EST 5:46 PM EST
Civil Twilight 6:50 AM EST 6:11 PM EST
Nautical Twilight 6:21 AM EST 6:40 PM EST
Astronomical Twilight 5:52 AM EST 7:09 PM EST
Moon 7:41 AM EST (1/12) 7:03 PM EST (1/12)
Length of Visible Light 11h 21m
Length of Day
10h 30m
New Moon, 1% of the Moon is Illuminated
Jan 12
New Moon
Jan 18
First Quarter
Jan 26
Full
Feb 3
Last Quarter
Feb 10
New

Hourly Weather History & Observations

Time (EST) Temp. Dew Point Humidity Pressure Visibility Wind Dir Wind Speed Gust Speed Precip Events Conditions
12:55 AM 69.4 °F 68.2 °F 96% 30.20 in 10.0 mi Calm Calm - N/A   Clear
1:55 AM 66.6 °F 65.3 °F 96% 30.20 in 10.0 mi South 3.5 mph - N/A   Clear
2:55 AM 65.7 °F 64.4 °F 96% 30.19 in 6.0 mi Calm Calm - N/A   Clear
3:06 AM 68.0 °F 66.2 °F 94% 30.19 in 1.0 mi Calm Calm - N/A   Clear
3:08 AM 68.0 °F 66.2 °F 94% 30.19 in 0.8 mi Calm Calm - N/A   Clear
3:15 AM 68.0 °F 66.2 °F 94% 30.19 in 0.8 mi Calm Calm - N/A   Clear
3:22 AM 68.0 °F 66.2 °F 94% 30.19 in 1.8 mi Calm Calm - N/A   Clear
3:23 AM 68.0 °F 66.2 °F 94% 30.19 in 2.5 mi Calm Calm - N/A   Clear
3:35 AM 66.2 °F 64.4 °F 94% 30.19 in 1.5 mi Calm Calm - N/A   Clear
3:36 AM 66.2 °F 64.4 °F 94% 30.19 in 1.2 mi Calm Calm - N/A   Clear
3:41 AM 66.2 °F 64.4 °F 94% 30.19 in 0.8 mi Calm Calm - N/A   Clear
3:43 AM 64.4 °F 64.4 °F 100% 30.19 in 1.0 mi Calm Calm - N/A   Clear
3:45 AM 64.4 °F 64.4 °F 100% 30.18 in 1.0 mi Calm Calm - N/A   Clear
3:55 AM 66.0 °F 65.1 °F 97% 30.18 in 3.0 mi NE 4.6 mph - N/A   Clear
4:24 AM 64.4 °F 64.4 °F 100% 30.18 in 6.0 mi Calm Calm - N/A   Clear
4:39 AM 66.2 °F 66.2 °F 100% 30.17 in 0.8 mi Calm Calm - N/A   Clear
4:43 AM 66.2 °F 64.4 °F 94% 30.17 in 0.8 mi Calm Calm - N/A   Clear
4:44 AM 66.2 °F 64.4 °F 94% 30.17 in 0.5 mi Calm Calm - N/A Fog Fog
4:55 AM 65.7 °F 64.9 °F 98% 30.17 in 0.5 mi Calm Calm - N/A Fog Fog
5:16 AM 66.2 °F 66.2 °F 100% 30.17 in 0.5 mi North 5.8 mph - N/A Fog Fog
5:18 AM 66.2 °F 66.2 °F 100% 30.17 in 0.8 mi NNE 4.6 mph - N/A   Clear
5:24 AM 66.2 °F 66.2 °F 100% 30.17 in 3.0 mi NNE 3.5 mph - N/A   Clear
5:55 AM 67.1 °F 66.2 °F 97% 30.18 in 1.5 mi NE 3.5 mph - N/A   Clear
5:58 AM 68.0 °F 66.2 °F 94% 30.18 in 0.5 mi NNE 4.6 mph - N/A Fog Fog
5:59 AM 68.0 °F 66.2 °F 94% 30.18 in 0.5 mi NNE 4.6 mph - N/A Fog Fog
6:14 AM 68.0 °F 66.2 °F 94% 30.18 in 0.2 mi NNE 4.6 mph - N/A Fog Fog
6:31 AM 68.0 °F 66.2 °F 94% 30.19 in 0.5 mi ENE 3.5 mph - N/A Fog Fog
6:37 AM 68.0 °F 66.2 °F 94% 30.19 in 0.8 mi ENE 3.5 mph - N/A   Clear
6:46 AM 68.0 °F 68.0 °F 100% 30.19 in 0.5 mi Calm Calm - N/A Fog Fog
6:55 AM 67.6 °F 67.1 °F 98% 30.19 in 0.5 mi NE 3.5 mph - N/A Fog Fog
6:56 AM 68.0 °F 66.2 °F 94% 30.19 in 0.5 mi Calm Calm - N/A Fog Fog
6:57 AM 66.2 °F 66.2 °F 100% 30.19 in 0.8 mi Calm Calm - N/A   Clear
7:06 AM 68.0 °F 68.0 °F 100% 30.20 in 0.5 mi Calm Calm - N/A Fog Fog
7:07 AM 68.0 °F 68.0 °F 100% 30.20 in 0.5 mi Calm Calm - N/A Fog Fog
7:15 AM 68.0 °F 66.2 °F 94% 30.20 in 0.2 mi NE 4.6 mph - N/A Fog Fog
7:21 AM 68.0 °F 66.2 °F 94% 30.20 in 0.5 mi NE 3.5 mph - N/A Fog Fog
7:28 AM 68.0 °F 66.2 °F 94% 30.20 in 0.5 mi NE 3.5 mph - N/A Fog Fog
7:36 AM 68.0 °F 66.2 °F 94% 30.20 in 1.0 mi NE 3.5 mph - N/A   Clear
7:42 AM 68.0 °F 66.2 °F 94% 30.20 in 3.0 mi NE 4.6 mph - N/A   Clear
7:55 AM 68.0 °F 67.5 °F 98% 30.20 in 6.0 mi ENE 3.5 mph - N/A   Clear
8:55 AM 70.9 °F 70.0 °F 97% 30.21 in 10.0 mi ENE 5.8 mph - N/A   Clear
9:55 AM 72.9 °F 70.0 °F 91% 30.22 in 10.0 mi East 6.9 mph - N/A   Clear
10:55 AM 75.6 °F 68.2 °F 78% 30.22 in 10.0 mi ESE 8.1 mph - N/A   Clear
11:55 AM 76.3 °F 68.2 °F 76% 30.18 in 10.0 mi East 9.2 mph - N/A   Clear
12:55 PM 76.5 °F 67.6 °F 74% 30.16 in 10.0 mi East 8.1 mph - N/A   Clear
1:55 PM 76.8 °F 68.0 °F 74% 30.14 in 10.0 mi East 9.2 mph - N/A   Clear
2:55 PM 76.6 °F 66.9 °F 72% 30.13 in 10.0 mi ESE 6.9 mph - N/A   Clear
3:55 PM 76.1 °F 66.2 °F 71% 30.13 in 10.0 mi East 6.9 mph - N/A   Clear
4:55 PM 74.8 °F 67.6 °F 78% 30.14 in 10.0 mi East 5.8 mph - N/A   Clear
5:55 PM 72.3 °F 68.0 °F 86% 30.16 in 10.0 mi ENE 4.6 mph - N/A   Clear
6:55 PM 71.4 °F 68.2 °F 89% 30.17 in 10.0 mi ENE 6.9 mph - N/A   Clear
7:55 PM 71.6 °F 67.6 °F 87% 30.16 in 10.0 mi East 8.1 mph - N/A   Clear
8:55 PM 71.8 °F 68.0 °F 88% 30.15 in 10.0 mi East 9.2 mph - N/A   Clear
9:55 PM 71.6 °F 67.3 °F 86% 30.14 in 10.0 mi East 9.2 mph - N/A   Clear
10:55 PM 70.9 °F 66.7 °F 87% 30.13 in 10.0 mi ESE 8.1 mph - N/A   Clear
11:55 PM 70.7 °F 66.0 °F 85% 30.13 in 8.0 mi ESE 6.9 mph - N/A   Clear